Simultaneous Nadir Overpasses (SNOs) Predictions

Prediction of SNOs over PacNW region [( 10.00, 139.50) to ( 22.70, 165.60)] between AQUA and NPP Satellites:

Table of predicted SNOs over PacNW region for the next 30.0 days since TLE Epoch: 3/4/2016
Index Date (AQUA) Time (AQUA) AQUA Lat,Lon Date (NPP) Time (NPP) NPP Lat,Lon Distance(km) Time Diff (sec)
1 03/05/2016 03:32:06 22.68, 147.48 03/05/2016 03:28:36 23.30, 145.70 194.67 210
2 03/10/2016 15:59:45 22.58, 147.45 03/10/2016 16:02:50 23.22, 144.65 295.68 185
3 03/18/2016 15:10:18 22.64, 159.83 03/18/2016 15:11:58 23.19, 157.34 262.42 100
4 03/21/2016 03:32:09 22.69, 147.49 03/21/2016 03:28:39 24.30, 145.47 272.94 210
5 03/26/2016 15:59:43 22.58, 147.48 03/26/2016 16:02:34 23.23, 144.68 295.53 171
